{"data":{"norad_id":59243,"epoch":"2026-09-20T21:52:13.701216Z","epoch_age_seconds":123240,"freshness":"FRESH","line1":"1 59243U 24049N   26263.91126969  .00000507  00000+0  27957-4 0  9999","line2":"2 59243  43.0025 120.9458 0000886 284.5910  75.4843 15.27576936142266","mean_motion":15.27576936,"eccentricity":8.86e-5,"inclination_deg":43.0025,"raan_deg":120.9458,"arg_perigee_deg":284.591,"mean_anomaly_deg":75.4843,"bstar":2.7957e-5,"rev_number":14226,"period_min":94.266937793044,"perigee_km":482.45036887227,"apogee_km":483.66617267425,"semimajor_km":6861.1952707733,"source":"CELESTRAK","updated_at":"2026-09-21T09:00:34.076913Z"}}